Time,TemperatureF,DewpointF,PressureIn,WindDirection,WindDirectionDegrees,WindSpeedMPH,WindSpeedGustMPH,Humidity,HourlyPrecipIn,Conditions,Clouds,dailyrainin,SoftwareType,DateUTC
2014-02-07 00:03:00,-12.1,-17.3,30.35,SSW,203,0.0,0.0,77,0.00,,,0.00,Wunderground v.1.15,2014-02-07 07:03:00,
2014-02-07 00:08:00,-11.5,-16.2,30.35,SSW,203,0.0,0.0,79,0.00,,,0.00,Wunderground v.1.15,2014-02-07 07:08:00,
2014-02-07 00:14:00,-10.9,-15.6,30.35,SSW,203,0.0,0.0,79,0.00,,,0.00,Wunderground v.1.15,2014-02-07 07:14:00,
2014-02-07 00:20:00,-10.6,-15.3,30.35,SSW,203,0.0,0.0,79,0.00,,,0.00,Wunderground v.1.15,2014-02-07 07:20:00,
2014-02-07 00:26:00,-11.5,-16.7,30.35,SSW,203,0.0,0.0,77,0.00,,,0.00,Wunderground v.1.15,2014-02-07 07:26:00,
2014-02-07 00:31:00,-11.7,-16.6,30.34,SSW,203,0.0,0.0,78,0.00,,,0.00,Wunderground v.1.15,2014-02-07 07:31:00,
2014-02-07 00:36:00,-10.5,-15.0,30.34,SSW,203,0.0,0.0,80,0.00,,,0.00,Wunderground v.1.15,2014-02-07 07:36:00,
2014-02-07 00:42:00,-9.6,-14.1,30.34,SSW,203,0.0,0.0,80,0.00,,,0.00,Wunderground v.1.15,2014-02-07 07:42:00,
2014-02-07 00:43:00,-9.5,-14.2,30.34,SSW,203,0.0,0.0,79,0.00,,,0.00,Wunderground v.1.15,2014-02-07 07:43:00,
2014-02-07 00:49:00,-9.0,-13.8,30.34,SSW,203,0.0,0.0,79,0.00,,,0.00,Wunderground v.1.15,2014-02-07 07:49:00,
2014-02-07 00:55:00,-8.4,-13.4,30.34,SSW,203,0.0,1.0,78,0.00,,,0.00,Wunderground v.1.15,2014-02-07 07:55:00,
2014-02-07 01:00:00,-8.2,-13.5,30.33,SSW,208,0.0,0.0,77,0.00,,,0.00,Wunderground v.1.15,2014-02-07 08:00:00,
2014-02-07 01:06:00,-8.1,-13.4,30.33,SSW,208,0.0,0.0,77,0.00,,,0.00,Wunderground v.1.15,2014-02-07 08:06:00,
2014-02-07 01:12:00,-8.7,-14.2,30.33,SSW,208,0.0,0.0,76,0.00,,,0.00,Wunderground v.1.15,2014-02-07 08:12:00,
2014-02-07 01:18:00,-9.1,-14.6,30.32,SSW,208,0.0,0.0,76,0.00,,,0.00,Wunderground v.1.15,2014-02-07 08:18:00,
2014-02-07 01:24:00,-8.2,-13.5,30.32,SSW,208,0.0,0.0,77,0.00,,,0.00,Wunderground v.1.15,2014-02-07 08:24:00,
2014-02-07 01:29:00,-8.5,-13.8,30.32,SSW,208,0.0,0.0,77,0.00,,,0.00,Wunderground v.1.15,2014-02-07 08:29:00,
2014-02-07 01:35:00,-8.3,-13.6,30.31,SSW,208,0.0,0.0,77,0.00,,,0.00,Wunderground v.1.15,2014-02-07 08:35:00,
2014-02-07 01:41:00,-7.3,-12.3,30.31,SSW,208,0.0,0.0,78,0.00,,,0.00,Wunderground v.1.15,2014-02-07 08:41:00,
2014-02-07 01:46:00,-7.2,-12.2,30.30,SSW,208,0.0,0.0,78,0.00,,,0.00,Wunderground v.1.15,2014-02-07 08:46:00,
2014-02-07 01:52:00,-8.3,-13.8,30.30,SSW,208,0.0,0.0,76,0.00,,,0.00,Wunderground v.1.15,2014-02-07 08:52:00,
2014-02-07 01:58:00,-7.2,-12.2,30.30,SSW,208,0.0,0.0,78,0.00,,,0.00,Wunderground v.1.15,2014-02-07 08:58:00,
2014-02-07 02:03:00,-6.7,-11.8,30.29,SSW,208,0.0,0.0,78,0.00,,,0.00,Wunderground v.1.15,2014-02-07 09:03:00,
2014-02-07 02:09:00,-6.1,-11.2,30.29,SSW,208,0.0,0.0,78,0.00,,,0.00,Wunderground v.1.15,2014-02-07 09:09:00,
2014-02-07 02:15:00,-6.0,-11.3,30.29,SSW,208,0.0,1.0,77,0.00,,,0.00,Wunderground v.1.15,2014-02-07 09:15:00,
2014-02-07 02:20:00,-6.8,-12.6,30.29,SSW,208,0.0,0.0,75,0.00,,,0.00,Wunderground v.1.15,2014-02-07 09:20:00,
2014-02-07 02:26:00,-7.3,-12.9,30.29,SSW,208,0.0,2.0,76,0.00,,,0.00,Wunderground v.1.15,2014-02-07 09:26:00,
2014-02-07 02:32:00,-7.5,-13.1,30.29,SSW,208,1.0,2.0,76,0.00,,,0.00,Wunderground v.1.15,2014-02-07 09:32:00,
2014-02-07 02:38:00,-6.9,-12.5,30.28,SW,216,1.0,2.0,76,0.00,,,0.00,Wunderground v.1.15,2014-02-07 09:38:00,
2014-02-07 02:43:00,-6.5,-12.1,30.28,SW,216,1.0,1.0,76,0.00,,,0.00,Wunderground v.1.15,2014-02-07 09:43:00,
2014-02-07 02:49:00,-6.6,-12.2,30.28,SSE,152,0.0,2.0,76,0.00,,,0.00,Wunderground v.1.15,2014-02-07 09:49:00,
2014-02-07 02:55:00,-9.8,-16.4,30.28,SSE,152,0.0,1.0,72,0.00,,,0.00,Wunderground v.1.15,2014-02-07 09:55:00,
2014-02-07 03:01:00,-11.5,-17.2,30.28,SSE,152,0.0,0.0,75,0.00,,,0.00,Wunderground v.1.15,2014-02-07 10:01:00,
2014-02-07 03:06:00,-11.4,-16.6,30.28,SSE,152,0.0,0.0,77,0.00,,,0.00,Wunderground v.1.15,2014-02-07 10:06:00,
2014-02-07 03:12:00,-10.7,-15.7,30.28,SSE,152,0.0,0.0,78,0.00,,,0.00,Wunderground v.1.15,2014-02-07 10:12:00,
2014-02-07 03:18:00,-10.4,-15.4,30.27,SSE,152,0.0,0.0,78,0.00,,,0.00,Wunderground v.1.15,2014-02-07 10:18:00,
2014-02-07 03:24:00,-10.8,-16.0,30.28,SSE,152,0.0,0.0,77,0.00,,,0.00,Wunderground v.1.15,2014-02-07 10:24:00,
2014-02-07 03:29:00,-10.9,-15.9,30.28,SSE,152,0.0,0.0,78,0.00,,,0.00,Wunderground v.1.15,2014-02-07 10:29:00,
2014-02-07 03:35:00,-10.1,-14.8,30.27,SSE,152,0.0,0.0,79,0.00,,,0.00,Wunderground v.1.15,2014-02-07 10:35:00,
2014-02-07 03:41:00,-9.1,-13.8,30.27,SSE,152,0.0,0.0,79,0.00,,,0.00,Wunderground v.1.15,2014-02-07 10:41:00,
2014-02-07 03:47:00,-8.6,-13.4,30.27,SSE,152,0.0,0.0,79,0.00,,,0.00,Wunderground v.1.15,2014-02-07 10:47:00,
2014-02-07 03:52:00,-8.0,-12.8,30.27,SSE,152,0.0,0.0,79,0.00,,,0.00,Wunderground v.1.15,2014-02-07 10:52:00,
2014-02-07 03:58:00,-7.4,-12.2,30.27,South,169,0.0,0.0,79,0.00,,,0.00,Wunderground v.1.15,2014-02-07 10:58:00,
2014-02-07 04:04:00,-7.2,-12.2,30.27,South,169,0.0,0.0,78,0.00,,,0.00,Wunderground v.1.15,2014-02-07 11:04:00,
2014-02-07 04:10:00,-8.2,-13.7,30.27,South,169,0.0,0.0,76,0.00,,,0.00,Wunderground v.1.15,2014-02-07 11:10:00,
2014-02-07 04:16:00,-9.2,-14.5,30.27,South,169,0.0,0.0,77,0.00,,,0.00,Wunderground v.1.15,2014-02-07 11:16:00,
2014-02-07 04:22:00,-9.0,-14.0,30.27,South,169,0.0,0.0,78,0.00,,,0.00,Wunderground v.1.15,2014-02-07 11:22:00,
2014-02-07 04:28:00,-8.1,-12.9,30.26,South,169,0.0,0.0,79,0.00,,,0.00,Wunderground v.1.15,2014-02-07 11:28:00,
2014-02-07 04:33:00,-7.9,-12.9,30.26,SSE,150,0.0,2.0,78,0.00,,,0.00,Wunderground v.1.15,2014-02-07 11:33:00,
2014-02-07 04:39:00,-8.7,-14.2,30.26,SSE,150,0.0,2.0,76,0.00,,,0.00,Wunderground v.1.15,2014-02-07 11:39:00,
2014-02-07 04:45:00,-9.0,-14.5,30.26,SSE,150,0.0,0.0,76,0.00,,,0.00,Wunderground v.1.15,2014-02-07 11:45:00,
2014-02-07 04:51:00,-8.9,-14.4,30.26,SSE,150,0.0,0.0,76,0.00,,,0.00,Wunderground v.1.15,2014-02-07 11:51:00,
2014-02-07 04:57:00,-8.5,-13.8,30.26,SSE,150,0.0,0.0,77,0.00,,,0.00,Wunderground v.1.15,2014-02-07 11:57:00,
2014-02-07 05:03:00,-8.0,-13.3,30.26,SSE,150,0.0,1.0,77,0.00,,,0.00,Wunderground v.1.15,2014-02-07 12:03:00,
2014-02-07 05:09:00,-8.0,-13.3,30.25,SSE,150,0.0,1.0,77,0.00,,,0.00,Wunderground v.1.15,2014-02-07 12:09:00,
2014-02-07 05:15:00,-7.8,-13.4,30.26,SSE,150,0.0,0.0,76,0.00,,,0.00,Wunderground v.1.15,2014-02-07 12:15:00,
2014-02-07 05:21:00,-7.6,-12.9,30.26,SSE,150,0.0,0.0,77,0.00,,,0.00,Wunderground v.1.15,2014-02-07 12:21:00,
2014-02-07 05:26:00,-7.2,-12.8,30.26,SSE,150,0.0,0.0,76,0.00,,,0.00,Wunderground v.1.15,2014-02-07 12:26:00,
2014-02-07 05:32:00,-6.9,-12.5,30.26,SSE,150,0.0,0.0,76,0.00,,,0.00,Wunderground v.1.15,2014-02-07 12:32:00,
2014-02-07 05:40:00,-6.3,-11.9,30.26,SSE,150,0.0,0.0,76,0.00,,,0.00,Wunderground v.1.15,2014-02-07 12:40:00,
2014-02-07 05:46:00,-6.6,-11.9,30.26,SSE,150,0.0,0.0,77,0.00,,,0.00,Wunderground v.1.15,2014-02-07 12:46:00,
2014-02-07 05:51:00,-6.8,-11.9,30.25,SSE,150,0.0,0.0,78,0.00,,,0.00,Wunderground v.1.15,2014-02-07 12:51:00,
2014-02-07 05:57:00,-6.2,-11.0,30.26,SSE,150,0.0,0.0,79,0.00,,,0.00,Wunderground v.1.15,2014-02-07 12:57:00,
2014-02-07 06:03:00,-6.6,-11.7,30.25,SSE,150,0.0,0.0,78,0.00,,,0.00,Wunderground v.1.15,2014-02-07 13:03:00,
2014-02-07 06:09:00,-6.6,-11.4,30.25,SSE,150,0.0,0.0,79,0.00,,,0.00,Wunderground v.1.15,2014-02-07 13:09:00,
2014-02-07 06:14:00,-6.8,-11.6,30.25,SSE,150,0.0,0.0,79,0.00,,,0.00,Wunderground v.1.15,2014-02-07 13:14:00,
2014-02-07 06:20:00,-6.5,-11.1,30.24,SSE,150,0.0,0.0,80,0.00,,,0.00,Wunderground v.1.15,2014-02-07 13:20:00,
2014-02-07 06:26:00,-6.3,-10.9,30.25,SSE,150,0.0,0.0,80,0.00,,,0.00,Wunderground v.1.15,2014-02-07 13:26:00,
2014-02-07 06:32:00,-5.9,-10.5,30.24,SSE,150,0.0,0.0,80,0.00,,,0.00,Wunderground v.1.15,2014-02-07 13:32:00,
2014-02-07 06:38:00,-6.2,-11.0,30.24,SSE,150,0.0,0.0,79,0.00,,,0.00,Wunderground v.1.15,2014-02-07 13:38:00,
2014-02-07 06:43:00,-6.2,-11.0,30.23,SSE,150,0.0,0.0,79,0.00,,,0.00,Wunderground v.1.15,2014-02-07 13:43:00,
2014-02-07 06:49:00,-5.8,-10.4,30.24,SSE,150,0.0,1.0,80,0.00,,,0.00,Wunderground v.1.15,2014-02-07 13:49:00,
2014-02-07 06:55:00,-5.4,-9.7,30.24,SSE,156,1.0,1.0,81,0.00,,,0.00,Wunderground v.1.15,2014-02-07 13:55:00,
2014-02-07 07:01:00,-5.3,-9.9,30.24,SSE,156,0.0,0.0,80,0.00,,,0.00,Wunderground v.1.15,2014-02-07 14:01:00,
2014-02-07 07:07:00,-5.2,-9.8,30.24,SSE,156,0.0,0.0,80,0.00,,,0.00,Wunderground v.1.15,2014-02-07 14:07:00,
2014-02-07 07:12:00,-5.1,-9.7,30.24,SSE,156,0.0,0.0,80,0.00,,,0.00,Wunderground v.1.15,2014-02-07 14:12:00,
2014-02-07 07:18:00,-4.9,-9.5,30.24,SSE,156,0.0,0.0,80,0.00,,,0.00,Wunderground v.1.15,2014-02-07 14:18:00,
2014-02-07 07:24:00,-4.7,-9.0,30.24,SSE,156,0.0,0.0,81,0.00,,,0.00,Wunderground v.1.15,2014-02-07 14:24:00,
2014-02-07 07:29:00,-4.5,-8.8,30.24,SSE,155,0.0,0.0,81,0.00,,,0.00,Wunderground v.1.15,2014-02-07 14:29:00,
2014-02-07 07:35:00,-4.5,-8.8,30.24,SSE,156,0.0,0.0,81,0.00,,,0.00,Wunderground v.1.15,2014-02-07 14:35:00,
2014-02-07 07:41:00,-4.7,-9.3,30.23,SSE,156,0.0,0.0,80,0.00,,,0.00,Wunderground v.1.15,2014-02-07 14:41:00,
2014-02-07 07:46:00,-4.8,-9.1,30.23,SSE,156,0.0,0.0,81,0.00,,,0.00,Wunderground v.1.15,2014-02-07 14:46:00,
2014-02-07 07:52:00,-5.0,-9.6,30.24,SSE,156,0.0,0.0,80,0.00,,,0.00,Wunderground v.1.15,2014-02-07 14:52:00,
2014-02-07 07:58:00,-5.0,-9.6,30.23,SSE,156,0.0,0.0,80,0.00,,,0.00,Wunderground v.1.15,2014-02-07 14:58:00,
2014-02-07 08:04:00,-4.6,-8.9,30.23,SSE,156,0.0,1.0,81,0.00,,,0.00,Wunderground v.1.15,2014-02-07 15:04:00,
2014-02-07 08:10:00,-4.3,-6.0,30.24,SSE,156,0.0,0.0,92,0.00,,,0.00,Wunderground v.1.15,2014-02-07 15:10:00,
2014-02-07 08:15:00,-3.8,-8.2,30.24,SSE,156,0.0,0.0,81,0.00,,,0.00,Wunderground v.1.15,2014-02-07 15:15:00,
2014-02-07 08:21:00,-3.6,-8.0,30.24,SSE,156,0.0,0.0,81,0.00,,,0.00,Wunderground v.1.15,2014-02-07 15:21:00,
2014-02-07 08:27:00,-3.7,-8.1,30.24,SSE,156,0.0,0.0,81,0.00,,,0.00,Wunderground v.1.15,2014-02-07 15:27:00,
2014-02-07 08:33:00,-3.7,-8.1,30.24,SSE,156,0.0,0.0,81,0.00,,,0.00,Wunderground v.1.15,2014-02-07 15:33:00,
2014-02-07 08:38:00,-3.5,-7.9,30.24,SSE,156,0.0,0.0,81,0.00,,,0.00,Wunderground v.1.15,2014-02-07 15:38:00,
2014-02-07 08:44:00,-3.3,-7.7,30.24,SSE,156,0.0,0.0,81,0.00,,,0.00,Wunderground v.1.15,2014-02-07 15:44:00,
2014-02-07 08:50:00,-3.0,-7.4,30.24,SSE,156,0.0,0.0,81,0.00,,,0.00,Wunderground v.1.15,2014-02-07 15:50:00,
2014-02-07 08:56:00,-2.7,-7.1,30.24,SSE,156,0.0,0.0,81,0.00,,,0.00,Wunderground v.1.15,2014-02-07 15:56:00,
2014-02-07 09:01:00,-2.5,-6.9,30.24,SSE,156,0.0,0.0,81,0.00,,,0.00,Wunderground v.1.15,2014-02-07 16:01:00,
2014-02-07 09:07:00,-2.3,-6.7,30.24,SSE,156,0.0,0.0,81,0.00,,,0.00,Wunderground v.1.15,2014-02-07 16:07:00,
2014-02-07 09:13:00,-2.0,-6.4,30.25,SSE,156,0.0,0.0,81,0.00,,,0.00,Wunderground v.1.15,2014-02-07 16:13:00,
2014-02-07 09:18:00,-1.8,-6.2,30.24,SSE,156,0.0,0.0,81,0.00,,,0.00,Wunderground v.1.15,2014-02-07 16:18:00,
2014-02-07 09:24:00,-1.8,-6.5,30.24,SSE,156,0.0,0.0,80,0.00,,,0.00,Wunderground v.1.15,2014-02-07 16:24:00,
2014-02-07 09:30:00,-1.8,-6.2,30.25,SSE,156,0.0,0.0,81,0.00,,,0.00,Wunderground v.1.15,2014-02-07 16:30:00,
2014-02-07 09:36:00,-1.7,-6.1,30.25,SSE,156,0.0,0.0,81,0.00,,,0.00,Wunderground v.1.15,2014-02-07 16:36:00,
2014-02-07 09:42:00,-1.6,-6.0,30.25,SSE,156,0.0,0.0,81,0.00,,,0.00,Wunderground v.1.15,2014-02-07 16:42:00,
2014-02-07 09:47:00,-1.6,-6.0,30.26,SSE,155,0.0,1.0,81,0.00,,,0.00,Wunderground v.1.15,2014-02-07 16:47:00,
2014-02-07 09:53:00,-1.8,-6.2,30.25,SSE,156,0.0,0.0,81,0.00,,,0.00,Wunderground v.1.15,2014-02-07 16:53:00,
2014-02-07 09:59:00,-1.6,-6.0,30.25,SSE,156,0.0,0.0,81,0.00,,,0.00,Wunderground v.1.15,2014-02-07 16:59:00,
2014-02-07 10:04:00,-1.4,-5.8,30.26,SSE,156,0.0,0.0,81,0.00,,,0.00,Wunderground v.1.15,2014-02-07 17:04:00,
2014-02-07 10:10:00,-1.4,-5.8,30.26,SSE,156,0.0,0.0,81,0.00,,,0.00,Wunderground v.1.15,2014-02-07 17:10:00,
2014-02-07 10:16:00,-1.3,-5.7,30.26,SSE,156,0.0,0.0,81,0.00,,,0.00,Wunderground v.1.15,2014-02-07 17:16:00,
2014-02-07 10:22:00,-1.1,-5.5,30.25,SSE,156,0.0,0.0,81,0.00,,,0.00,Wunderground v.1.15,2014-02-07 17:22:00,
2014-02-07 10:27:00,-0.9,-5.3,30.25,SSE,156,0.0,0.0,81,0.00,,,0.00,Wunderground v.1.15,2014-02-07 17:27:00,
2014-02-07 10:33:00,-0.9,-5.3,30.25,SSE,156,0.0,0.0,81,0.00,,,0.00,Wunderground v.1.15,2014-02-07 17:33:00,
2014-02-07 10:39:00,-0.5,-4.9,30.26,SSE,156,0.0,0.0,81,0.00,,,0.00,Wunderground v.1.15,2014-02-07 17:39:00,
2014-02-07 10:45:00,-0.1,-4.8,30.26,SSE,156,0.0,0.0,80,0.00,,,0.00,Wunderground v.1.15,2014-02-07 17:45:00,
2014-02-07 10:51:00,0.2,-4.5,30.26,SSE,156,0.0,0.0,80,0.00,,,0.00,Wunderground v.1.15,2014-02-07 17:51:00,
2014-02-07 10:56:00,0.1,-4.6,30.26,SSE,156,0.0,2.0,80,0.00,,,0.00,Wunderground v.1.15,2014-02-07 17:56:00,
2014-02-07 11:02:00,-0.1,-4.8,30.26,SSE,156,1.0,2.0,80,0.00,,,0.00,Wunderground v.1.15,2014-02-07 18:02:00,
2014-02-07 11:08:00,-0.2,-4.9,30.26,SSE,157,1.0,2.0,80,0.00,,,0.00,Wunderground v.1.15,2014-02-07 18:08:00,
2014-02-07 11:13:00,-0.2,-4.9,30.26,SSE,157,1.0,2.0,80,0.00,,,0.00,Wunderground v.1.15,2014-02-07 18:13:00,
2014-02-07 11:19:00,0.2,-4.3,30.27,SSE,157,1.0,2.0,81,0.00,,,0.00,Wunderground v.1.15,2014-02-07 18:19:00,
2014-02-07 11:25:00,0.6,-4.1,30.27,SSE,159,1.0,4.0,80,0.00,,,0.00,Wunderground v.1.15,2014-02-07 18:25:00,
2014-02-07 11:30:00,0.7,-4.0,30.27,SSE,159,1.0,1.0,80,0.00,,,0.00,Wunderground v.1.15,2014-02-07 18:30:00,
2014-02-07 11:36:00,0.9,-3.6,30.27,SSE,159,0.0,1.0,81,0.00,,,0.00,Wunderground v.1.15,2014-02-07 18:36:00,
2014-02-07 11:42:00,1.1,-3.4,30.27,SSE,159,0.0,0.0,81,0.00,,,0.00,Wunderground v.1.15,2014-02-07 18:42:00,
2014-02-07 11:48:00,1.4,-3.1,30.27,SSE,159,0.0,0.0,81,0.00,,,0.00,Wunderground v.1.15,2014-02-07 18:48:00,
2014-02-07 11:54:00,1.7,-2.8,30.27,SSE,159,0.0,0.0,81,0.00,,,0.00,Wunderground v.1.15,2014-02-07 18:54:00,
2014-02-07 11:59:00,1.9,-2.8,30.27,SSW,203,0.0,1.0,80,0.00,,,0.00,Wunderground v.1.15,2014-02-07 18:59:00,
2014-02-07 12:05:00,2.1,-2.4,30.27,SSW,204,0.0,0.0,81,0.00,,,0.00,Wunderground v.1.15,2014-02-07 19:05:00,
2014-02-07 12:10:00,2.2,-2.3,30.27,East,101,0.0,0.0,81,0.00,,,0.00,Wunderground v.1.15,2014-02-07 19:10:00,
2014-02-07 12:16:00,2.2,-2.3,30.27,East,101,0.0,0.0,81,0.00,,,0.00,Wunderground v.1.15,2014-02-07 19:16:00,
2014-02-07 12:22:00,2.0,-2.5,30.27,East,101,0.0,0.0,81,0.00,,,0.00,Wunderground v.1.15,2014-02-07 19:22:00,
2014-02-07 12:28:00,2.1,-2.4,30.27,East,101,0.0,1.0,81,0.00,,,0.00,Wunderground v.1.15,2014-02-07 19:28:00,
2014-02-07 12:33:00,2.3,-2.2,30.27,East,101,0.0,0.0,81,0.00,,,0.00,Wunderground v.1.15,2014-02-07 19:33:00,
2014-02-07 12:39:00,1.9,-2.8,30.28,East,101,0.0,1.0,80,0.00,,,0.00,Wunderground v.1.15,2014-02-07 19:39:00,
2014-02-07 12:45:00,2.4,-2.1,30.28,East,101,0.0,1.0,81,0.00,,,0.00,Wunderground v.1.15,2014-02-07 19:45:00,
2014-02-07 12:51:00,2.5,-2.0,30.28,East,101,0.0,1.0,81,0.00,,,0.00,Wunderground v.1.15,2014-02-07 19:51:00,
2014-02-07 12:56:00,2.5,-2.3,30.28,South,188,0.0,2.0,80,0.00,,,0.00,Wunderground v.1.15,2014-02-07 19:56:00,
2014-02-07 13:02:00,2.6,-1.9,30.28,South,187,0.0,0.0,81,0.00,,,0.00,Wunderground v.1.15,2014-02-07 20:02:00,
2014-02-07 13:08:00,2.7,-1.8,30.28,East,89,0.0,2.0,81,0.00,,,0.00,Wunderground v.1.15,2014-02-07 20:08:00,
2014-02-07 13:14:00,3.1,-1.4,30.28,East,89,0.0,0.0,81,0.00,,,0.00,Wunderground v.1.15,2014-02-07 20:14:00,
2014-02-07 13:20:00,2.8,-2.0,30.28,South,181,1.0,2.0,80,0.00,,,0.00,Wunderground v.1.15,2014-02-07 20:20:00,
2014-02-07 13:25:00,3.1,-1.7,30.28,SE,138,1.0,2.0,80,0.00,,,0.00,Wunderground v.1.15,2014-02-07 20:25:00,
2014-02-07 13:31:00,3.3,-1.5,30.28,SSE,148,0.0,1.0,80,0.00,,,0.00,Wunderground v.1.15,2014-02-07 20:31:00,
2014-02-07 13:37:00,2.7,-2.3,30.28,SSE,148,1.0,2.0,79,0.00,,,0.00,Wunderground v.1.15,2014-02-07 20:37:00,
2014-02-07 13:43:00,2.9,-1.9,30.29,SSE,148,1.0,1.0,80,0.00,,,0.00,Wunderground v.1.15,2014-02-07 20:43:00,
2014-02-07 13:48:00,3.0,-1.8,30.29,South,170,0.0,2.0,80,0.00,,,0.00,Wunderground v.1.15,2014-02-07 20:48:00,
2014-02-07 13:54:00,3.2,-1.6,30.29,South,174,1.0,2.0,80,0.00,,,0.00,Wunderground v.1.15,2014-02-07 20:54:00,
2014-02-07 13:59:00,3.5,-1.3,30.29,SE,137,1.0,1.0,80,0.00,,,0.00,Wunderground v.1.15,2014-02-07 20:59:00,
2014-02-07 14:05:00,3.4,-1.7,30.29,SSW,198,1.0,3.0,79,0.00,,,0.00,Wunderground v.1.15,2014-02-07 21:05:00,
2014-02-07 14:11:00,3.6,-0.9,30.29,South,184,2.0,2.0,81,0.00,,,0.00,Wunderground v.1.15,2014-02-07 21:11:00,
2014-02-07 14:17:00,4.4,-0.1,30.29,East,80,1.0,2.0,81,0.00,,,0.00,Wunderground v.1.15,2014-02-07 21:17:00,
2014-02-07 14:22:00,4.4,-0.4,30.29,South,181,1.0,2.0,80,0.00,,,0.00,Wunderground v.1.15,2014-02-07 21:22:00,
2014-02-07 14:28:00,4.2,-0.9,30.29,SE,125,1.0,4.0,79,0.00,,,0.00,Wunderground v.1.15,2014-02-07 21:28:00,
2014-02-07 14:34:00,4.0,-1.1,30.30,South,178,2.0,3.0,79,0.00,,,0.00,Wunderground v.1.15,2014-02-07 21:34:00,
2014-02-07 14:40:00,4.5,-0.3,30.29,SSE,148,1.0,1.0,80,0.00,,,0.00,Wunderground v.1.15,2014-02-07 21:40:00,
2014-02-07 14:46:00,4.3,-0.8,30.30,SSE,155,1.0,3.0,79,0.00,,,0.00,Wunderground v.1.15,2014-02-07 21:46:00,
2014-02-07 14:51:00,4.2,-0.9,30.30,SSE,165,1.0,1.0,79,0.00,,,0.00,Wunderground v.1.15,2014-02-07 21:51:00,
2014-02-07 14:57:00,4.1,-0.7,30.30,South,173,1.0,4.0,80,0.00,,,0.00,Wunderground v.1.15,2014-02-07 21:57:00,
2014-02-07 15:03:00,3.9,-0.9,30.30,South,190,1.0,2.0,80,0.00,,,0.00,Wunderground v.1.15,2014-02-07 22:03:00,
2014-02-07 15:09:00,3.9,-0.9,30.30,SSE,166,1.0,2.0,80,0.00,,,0.00,Wunderground v.1.15,2014-02-07 22:09:00,
2014-02-07 15:14:00,3.8,-1.3,30.30,SSE,148,1.0,2.0,79,0.00,,,0.00,Wunderground v.1.15,2014-02-07 22:14:00,
2014-02-07 15:20:00,3.5,-1.8,30.30,South,186,1.0,1.0,78,0.00,,,0.00,Wunderground v.1.15,2014-02-07 22:20:00,
2014-02-07 15:26:00,3.7,-1.4,30.30,South,186,1.0,1.0,79,0.00,,,0.00,Wunderground v.1.15,2014-02-07 22:26:00,
2014-02-07 15:31:00,3.7,-1.4,30.30,East,100,0.0,0.0,79,0.00,,,0.00,Wunderground v.1.15,2014-02-07 22:31:00,
2014-02-07 15:37:00,3.6,-1.5,30.31,East,100,0.0,1.0,79,0.00,,,0.00,Wunderground v.1.15,2014-02-07 22:37:00,
2014-02-07 15:43:00,3.5,-1.8,30.31,East,100,0.0,0.0,78,0.00,,,0.00,Wunderground v.1.15,2014-02-07 22:43:00,
2014-02-07 15:48:00,3.5,-1.8,30.31,East,100,0.0,0.0,78,0.00,,,0.00,Wunderground v.1.15,2014-02-07 22:48:00,
2014-02-07 15:54:00,3.5,-1.8,30.31,East,100,0.0,0.0,78,0.00,,,0.00,Wunderground v.1.15,2014-02-07 22:54:00,
2014-02-07 16:00:00,3.5,-1.8,30.31,East,100,0.0,0.0,78,0.00,,,0.00,Wunderground v.1.15,2014-02-07 23:00:00,
2014-02-07 16:06:00,3.3,-1.7,30.31,East,100,0.0,0.0,79,0.00,,,0.00,Wunderground v.1.15,2014-02-07 23:06:00,
2014-02-07 16:12:00,3.2,-1.8,30.31,East,100,0.0,0.0,79,0.00,,,0.00,Wunderground v.1.15,2014-02-07 23:12:00,
2014-02-07 16:17:00,3.1,-1.9,30.31,East,100,0.0,0.0,79,0.00,,,0.00,Wunderground v.1.15,2014-02-07 23:17:00,
2014-02-07 16:23:00,3.0,-1.8,30.31,East,100,0.0,0.0,80,0.00,,,0.00,Wunderground v.1.15,2014-02-07 23:23:00,
2014-02-07 16:29:00,3.1,-1.9,30.31,East,100,0.0,0.0,79,0.00,,,0.00,Wunderground v.1.15,2014-02-07 23:29:00,
2014-02-07 16:34:00,2.9,-2.1,30.31,East,100,0.0,0.0,79,0.00,,,0.00,Wunderground v.1.15,2014-02-07 23:34:00,
2014-02-07 16:39:00,3.0,-2.0,30.31,East,100,0.0,0.0,79,0.00,,,0.00,Wunderground v.1.15,2014-02-07 23:39:00,
2014-02-07 16:45:00,3.0,-2.0,30.31,East,100,0.0,0.0,79,0.00,,,0.00,Wunderground v.1.15,2014-02-07 23:45:00,
2014-02-07 16:51:00,2.9,-1.9,30.31,East,100,0.0,0.0,80,0.00,,,0.00,Wunderground v.1.15,2014-02-07 23:51:00,
2014-02-07 16:57:00,2.8,-2.2,30.31,East,100,0.0,0.0,79,0.00,,,0.00,Wunderground v.1.15,2014-02-07 23:57:00,
2014-02-07 17:03:00,2.7,-2.3,30.31,East,100,0.0,0.0,79,0.00,,,0.00,Wunderground v.1.15,2014-02-08 00:03:00,
2014-02-07 17:08:00,2.5,-2.5,30.31,East,100,0.0,0.0,79,0.00,,,0.00,Wunderground v.1.15,2014-02-08 00:08:00,
2014-02-07 17:14:00,2.4,-2.4,30.31,East,100,0.0,0.0,80,0.00,,,0.00,Wunderground v.1.15,2014-02-08 00:14:00,
2014-02-07 17:19:00,2.5,-2.0,30.30,East,100,0.0,0.0,81,0.00,,,0.00,Wunderground v.1.15,2014-02-08 00:19:00,
2014-02-07 17:25:00,2.5,-2.0,30.30,East,100,0.0,0.0,81,0.00,,,0.00,Wunderground v.1.15,2014-02-08 00:25:00,
2014-02-07 17:31:00,2.4,-2.1,30.30,East,100,0.0,0.0,81,0.00,,,0.00,Wunderground v.1.15,2014-02-08 00:31:00,
2014-02-07 17:37:00,2.4,-2.1,30.30,East,100,0.0,0.0,81,0.00,,,0.00,Wunderground v.1.15,2014-02-08 00:37:00,
2014-02-07 17:43:00,2.4,-2.1,30.30,East,100,0.0,0.0,81,0.00,,,0.00,Wunderground v.1.15,2014-02-08 00:43:00,
2014-02-07 17:48:00,2.4,-2.1,30.30,East,100,0.0,0.0,81,0.00,,,0.00,Wunderground v.1.15,2014-02-08 00:48:00,
2014-02-07 17:54:00,2.3,-2.2,30.30,East,100,0.0,0.0,81,0.00,,,0.00,Wunderground v.1.15,2014-02-08 00:54:00,
2014-02-07 18:00:00,2.2,-2.3,30.30,East,100,0.0,0.0,81,0.00,,,0.00,Wunderground v.1.15,2014-02-08 01:00:00,
2014-02-07 18:05:00,2.2,-2.3,30.30,East,100,0.0,0.0,81,0.00,,,0.00,Wunderground v.1.15,2014-02-08 01:05:00,
2014-02-07 18:11:00,2.2,-2.0,30.30,East,100,0.0,0.0,82,0.00,,,0.00,Wunderground v.1.15,2014-02-08 01:11:00,
2014-02-07 18:16:00,2.2,-2.0,30.30,East,100,0.0,0.0,82,0.00,,,0.00,Wunderground v.1.15,2014-02-08 01:16:00,
2014-02-07 18:36:00,1.0,-3.2,30.30,East,100,0.0,0.0,82,0.00,,,0.00,Wunderground v.1.15,2014-02-08 01:36:00,
2014-02-07 18:42:00,0.8,-3.4,30.30,East,100,0.0,0.0,82,0.00,,,0.00,Wunderground v.1.15,2014-02-08 01:42:00,
2014-02-07 18:48:00,0.9,-3.3,30.30,East,100,0.0,0.0,82,0.00,,,0.00,Wunderground v.1.15,2014-02-08 01:48:00,
2014-02-07 18:53:00,1.1,-3.1,30.30,East,100,0.0,0.0,82,0.00,,,0.00,Wunderground v.1.15,2014-02-08 01:53:00,
2014-02-07 18:59:00,1.1,-3.1,30.30,East,100,0.0,0.0,82,0.00,,,0.00,Wunderground v.1.15,2014-02-08 01:59:00,
2014-02-07 19:05:00,1.3,-2.7,30.30,East,100,0.0,0.0,83,0.00,,,0.00,Wunderground v.1.15,2014-02-08 02:05:00,
2014-02-07 19:10:00,1.5,-2.5,30.30,East,100,0.0,0.0,83,0.00,,,0.00,Wunderground v.1.15,2014-02-08 02:10:00,
2014-02-07 19:16:00,1.6,-2.4,30.30,East,100,0.0,0.0,83,0.00,,,0.00,Wunderground v.1.15,2014-02-08 02:16:00,
2014-02-07 19:22:00,1.7,-2.3,30.30,East,100,0.0,0.0,83,0.00,,,0.00,Wunderground v.1.15,2014-02-08 02:22:00,
2014-02-07 19:27:00,1.7,-2.5,30.30,East,100,0.0,0.0,82,0.00,,,0.00,Wunderground v.1.15,2014-02-08 02:27:00,
2014-02-07 19:33:00,1.6,-2.6,30.30,East,100,0.0,1.0,82,0.00,,,0.00,Wunderground v.1.15,2014-02-08 02:33:00,
2014-02-07 19:39:00,1.6,-2.6,30.30,East,100,0.0,1.0,82,0.00,,,0.00,Wunderground v.1.15,2014-02-08 02:39:00,
2014-02-07 19:45:00,1.5,-2.7,30.30,East,100,0.0,0.0,82,0.00,,,0.00,Wunderground v.1.15,2014-02-08 02:45:00,
2014-02-07 19:51:00,1.4,-3.1,30.30,East,100,0.0,0.0,81,0.00,,,0.00,Wunderground v.1.15,2014-02-08 02:51:00,
2014-02-07 19:57:00,1.3,-2.9,30.30,East,100,0.0,0.0,82,0.00,,,0.00,Wunderground v.1.15,2014-02-08 02:57:00,
2014-02-07 20:02:00,1.1,-3.4,30.30,East,100,0.0,1.0,81,0.00,,,0.00,Wunderground v.1.15,2014-02-08 03:02:00,
2014-02-07 20:08:00,0.6,-4.1,30.29,East,100,0.0,1.0,80,0.00,,,0.00,Wunderground v.1.15,2014-02-08 03:08:00,
2014-02-07 20:14:00,0.4,-4.3,30.30,East,100,0.0,0.0,80,0.00,,,0.00,Wunderground v.1.15,2014-02-08 03:14:00,
2014-02-07 20:19:00,0.1,-4.3,30.30,East,100,0.0,0.0,81,0.00,,,0.00,Wunderground v.1.15,2014-02-08 03:19:00,
2014-02-07 20:25:00,0.0,-4.4,30.29,East,100,0.0,0.0,81,0.00,,,0.00,Wunderground v.1.15,2014-02-08 03:25:00,
2014-02-07 20:31:00,-0.1,-4.3,30.29,East,100,0.0,0.0,82,0.00,,,0.00,Wunderground v.1.15,2014-02-08 03:31:00,
2014-02-07 20:37:00,0.0,-3.9,30.29,East,100,0.0,0.0,83,0.00,,,0.00,Wunderground v.1.15,2014-02-08 03:37:00,
2014-02-07 20:42:00,0.0,-3.9,30.29,East,100,0.0,0.0,83,0.00,,,0.00,Wunderground v.1.15,2014-02-08 03:42:00,
2014-02-07 20:48:00,0.1,-3.8,30.29,East,100,0.0,0.0,83,0.00,,,0.00,Wunderground v.1.15,2014-02-08 03:48:00,
2014-02-07 20:54:00,0.0,-3.9,30.29,East,100,0.0,1.0,83,0.00,,,0.00,Wunderground v.1.15,2014-02-08 03:54:00,
2014-02-07 20:59:00,-0.2,-4.4,30.29,East,100,0.0,1.0,82,0.00,,,0.00,Wunderground v.1.15,2014-02-08 03:59:00,
2014-02-07 21:05:00,-0.4,-4.6,30.29,East,100,0.0,0.0,82,0.00,,,0.00,Wunderground v.1.15,2014-02-08 04:05:00,
2014-02-07 21:11:00,-0.7,-4.9,30.29,East,100,0.0,0.0,82,0.00,,,0.00,Wunderground v.1.15,2014-02-08 04:11:00,
2014-02-07 21:16:00,-0.8,-4.7,30.29,East,100,0.0,0.0,83,0.00,,,0.00,Wunderground v.1.15,2014-02-08 04:16:00,
2014-02-07 21:22:00,-0.8,-4.7,30.28,East,100,0.0,0.0,83,0.00,,,0.00,Wunderground v.1.15,2014-02-08 04:22:00,
2014-02-07 21:27:00,-0.8,-4.7,30.28,East,100,0.0,1.0,83,0.00,,,0.00,Wunderground v.1.15,2014-02-08 04:27:00,
2014-02-07 21:33:00,-0.9,-4.8,30.28,East,100,0.0,0.0,83,0.00,,,0.00,Wunderground v.1.15,2014-02-08 04:33:00,
2014-02-07 21:39:00,-0.7,-4.4,30.28,East,100,0.0,0.0,84,0.00,,,0.00,Wunderground v.1.15,2014-02-08 04:39:00,
2014-02-07 21:45:00,-0.5,-4.2,30.28,East,100,0.0,0.0,84,0.00,,,0.00,Wunderground v.1.15,2014-02-08 04:45:00,
2014-02-07 21:50:00,-0.4,-4.1,30.28,East,100,0.0,0.0,84,0.00,,,0.00,Wunderground v.1.15,2014-02-08 04:50:00,
2014-02-07 21:56:00,-0.3,-4.0,30.28,East,100,0.0,0.0,84,0.00,,,0.00,Wunderground v.1.15,2014-02-08 04:56:00,
2014-02-07 22:02:00,-0.2,-3.9,30.28,East,100,0.0,0.0,84,0.00,,,0.00,Wunderground v.1.15,2014-02-08 05:02:00,
2014-02-07 22:03:00,-0.2,-3.9,30.27,East,100,0.0,0.0,84,0.00,,,0.00,Wunderground v.1.15,2014-02-08 05:03:00,
2014-02-07 22:04:00,-0.2,-3.9,30.28,East,100,0.0,0.0,84,0.00,,,0.00,Wunderground v.1.15,2014-02-08 05:04:00,
2014-02-07 22:05:00,-0.2,-3.9,30.27,East,100,0.0,0.0,84,0.00,,,0.00,Wunderground v.1.15,2014-02-08 05:05:00,
2014-02-07 22:11:00,-0.1,-3.8,30.27,East,100,0.0,0.0,84,0.00,,,0.00,Wunderground v.1.15,2014-02-08 05:11:00,
2014-02-07 22:16:00,-0.1,-3.5,30.27,East,100,0.0,0.0,85,0.00,,,0.00,Wunderground v.1.15,2014-02-08 05:16:00,
2014-02-07 22:21:00,0.1,-3.6,30.27,East,100,0.0,0.0,84,0.00,,,0.00,Wunderground v.1.15,2014-02-08 05:21:00,
2014-02-07 22:27:00,0.1,-3.3,30.27,East,100,0.0,0.0,85,0.00,,,0.00,Wunderground v.1.15,2014-02-08 05:27:00,
2014-02-07 22:32:00,0.2,-3.2,30.26,East,100,0.0,0.0,85,0.00,,,0.00,Wunderground v.1.15,2014-02-08 05:32:00,
2014-02-07 22:38:00,0.2,-3.5,30.26,East,100,0.0,0.0,84,0.00,,,0.00,Wunderground v.1.15,2014-02-08 05:38:00,
2014-02-07 22:44:00,0.1,-3.6,30.26,East,100,0.0,0.0,84,0.00,,,0.00,Wunderground v.1.15,2014-02-08 05:44:00,
2014-02-07 22:49:00,0.0,-3.7,30.26,East,100,0.0,0.0,84,0.00,,,0.00,Wunderground v.1.15,2014-02-08 05:49:00,
2014-02-07 22:55:00,-0.1,-4.0,30.26,East,100,0.0,0.0,83,0.00,,,0.00,Wunderground v.1.15,2014-02-08 05:55:00,
2014-02-07 22:58:00,-0.3,-4.2,30.26,East,100,0.0,0.0,83,0.00,,,0.00,Wunderground v.1.15,2014-02-08 05:58:00,
2014-02-07 23:04:00,-0.5,-4.4,30.26,East,100,0.0,0.0,83,0.00,,,0.00,Wunderground v.1.15,2014-02-08 06:04:00,
2014-02-07 23:10:00,-0.7,-4.6,30.26,East,100,0.0,0.0,83,0.00,,,0.00,Wunderground v.1.15,2014-02-08 06:10:00,
2014-02-07 23:16:00,-0.9,-4.8,30.26,East,100,0.0,0.0,83,0.00,,,0.00,Wunderground v.1.15,2014-02-08 06:16:00,
2014-02-07 23:22:00,-1.2,-5.4,30.26,East,100,0.0,0.0,82,0.00,,,0.00,Wunderground v.1.15,2014-02-08 06:22:00,
2014-02-07 23:27:00,-1.5,-5.4,30.26,East,100,0.0,0.0,83,0.00,,,0.00,Wunderground v.1.15,2014-02-08 06:27:00,
2014-02-07 23:33:00,-1.7,-5.6,30.26,East,100,0.0,0.0,83,0.00,,,0.00,Wunderground v.1.15,2014-02-08 06:33:00,
2014-02-07 23:39:00,-1.7,-5.6,30.26,East,100,0.0,0.0,83,0.00,,,0.00,Wunderground v.1.15,2014-02-08 06:39:00,
2014-02-07 23:45:00,-1.7,-5.4,30.26,East,100,0.0,0.0,84,0.00,,,0.00,Wunderground v.1.15,2014-02-08 06:45:00,
2014-02-07 23:51:00,-1.7,-5.4,30.26,East,100,0.0,0.0,84,0.00,,,0.00,Wunderground v.1.15,2014-02-08 06:51:00,
2014-02-07 23:56:00,-1.7,-5.4,30.26,East,100,0.0,0.0,84,0.00,,,0.00,Wunderground v.1.15,2014-02-08 06:56:00,